,,PA_Meas_PMT16A,,PR_Meas_QMR101_102,,RH_Meas_QMH101,,SR_Meas_QMS101,,TA_Meas_QMH101,,GenWind,,GenWind,
time,status,PA,status,PR,status,RH,status,SR,status,TA,status,DirAvg,status,SpdAvg,
2014-12-25, 00:00:04,VALID,917.699,VALID,0,VALID,97.4501,VALID,0,VALID,19.9968,VALID,323,VALID,0,
2014-12-25, 00:01:04,VALID,917.695,VALID,0,VALID,97.3891,VALID,0,VALID,19.9953,VALID,323,VALID,0,
2014-12-25, 00:02:04,VALID,917.689,VALID,0,VALID,97.3281,VALID,0,VALID,19.9953,VALID,323,VALID,0,
2014-12-25, 00:03:04,VALID,917.652,VALID,0,VALID,97.2748,VALID,0,VALID,20.0148,VALID,323,VALID,0,
2014-12-25, 00:04:04,VALID,917.69,VALID,0,VALID,97.229,VALID,0,VALID,20.0343,VALID,323,VALID,0,
2014-12-25, 00:05:04,VALID,917.665,VALID,0,VALID,97.1604,VALID,0,VALID,20.0343,VALID,323,VALID,0,
2014-12-25, 00:06:04,VALID,917.651,VALID,0,VALID,97.0994,VALID,0,VALID,20.0733,VALID,323,VALID,0,
2014-12-25, 00:07:04,VALID,917.655,VALID,0,VALID,97.0156,VALID,0,VALID,20.0538,VALID,323,VALID,0,
2014-12-25, 00:08:04,VALID,917.63,VALID,0,VALID,96.9165,VALID,0,VALID,20.0733,VALID,323,VALID,0,
2014-12-25, 00:09:04,VALID,917.657,VALID,0,VALID,96.8174,VALID,0,VALID,20.0944,VALID,323,VALID,0,
2014-12-25, 00:10:04,VALID,917.628,VALID,0,VALID,96.6268,VALID,0,VALID,20.0733,VALID,323,VALID,0,
2014-12-25, 00:11:04,VALID,917.644,VALID,0,VALID,96.4515,VALID,0,VALID,20.0944,VALID,323,VALID,0,
2014-12-25, 00:12:04,VALID,917.603,VALID,0,VALID,96.3219,VALID,0,VALID,20.1139,VALID,323,VALID,0,
2014-12-25, 00:13:04,VALID,917.604,VALID,0,VALID,96.177,VALID,0,VALID,20.1334,VALID,323,VALID,0,
2014-12-25, 00:14:04,VALID,917.572,VALID,0,VALID,96.1084,VALID,0,VALID,20.1529,VALID,323,VALID,0,
2014-12-25, 00:15:04,VALID,917.546,VALID,0,VALID,96.0322,VALID,0,VALID,20.1318,VALID,323,VALID,0,
2014-12-25, 00:16:04,VALID,917.55,VALID,0,VALID,95.9407,VALID,0,VALID,20.1513,VALID,323,VALID,0,
2014-12-25, 00:17:04,VALID,917.534,VALID,0,VALID,95.9483,VALID,0,VALID,20.1708,VALID,323,VALID,0,
2014-12-25, 00:18:04,VALID,917.542,VALID,0,VALID,95.9102,VALID,0,VALID,20.1708,VALID,323,VALID,0,
2014-12-25, 00:19:04,VALID,917.544,VALID,0,VALID,95.9026,VALID,0,VALID,20.2309,VALID,323,VALID,0,
2014-12-25, 00:20:04,VALID,917.541,VALID,0,VALID,95.8797,VALID,0,VALID,20.2098,VALID,323,VALID,0,
2014-12-25, 00:21:04,VALID,917.53,VALID,0,VALID,95.8873,VALID,0,VALID,20.2098,VALID,323,VALID,0,
2014-12-25, 00:22:04,VALID,917.532,VALID,0,VALID,95.8873,VALID,0,VALID,20.2293,VALID,323,VALID,0,
2014-12-25, 00:23:04,VALID,917.518,VALID,0,VALID,95.9788,VALID,0,VALID,20.2504,VALID,323,VALID,0,
2014-12-25, 00:24:04,VALID,917.53,VALID,0,VALID,96.0474,VALID,0,VALID,20.2504,VALID,323,VALID,0,
2014-12-25, 00:25:04,VALID,917.517,VALID,0,VALID,95.8492,VALID,0,VALID,20.1708,VALID,323,VALID,0,
2014-12-25, 00:26:04,VALID,917.524,VALID,0,VALID,95.834,VALID,0,VALID,20.1903,VALID,323,VALID,0,
2014-12-25, 00:27:04,VALID,917.538,VALID,0,VALID,95.8416,VALID,0,VALID,20.2309,VALID,323,VALID,0,
2014-12-25, 00:28:04,VALID,917.553,VALID,0,VALID,95.6662,VALID,0,VALID,20.2114,VALID,323,VALID,0,
2014-12-25, 00:29:04,VALID,917.557,VALID,0,VALID,95.5671,VALID,0,VALID,20.2098,VALID,320,VALID,0,
2014-12-25, 00:30:04,VALID,917.559,VALID,0,VALID,95.4985,VALID,0,VALID,20.2114,VALID,315,VALID,0,
2014-12-25, 00:31:04,VALID,917.543,VALID,0,VALID,95.6205,VALID,0,VALID,20.1708,VALID,315,VALID,0,
2014-12-25, 00:32:04,VALID,917.544,VALID,0,VALID,95.8721,VALID,0,VALID,20.1708,VALID,323,VALID,0,
2014-12-25, 00:33:04,VALID,917.556,VALID,0.2,VALID,96.0932,VALID,0,VALID,20.1708,VALID,323,VALID,0,
2014-12-25, 00:34:04,VALID,917.594,VALID,0,VALID,96.238,VALID,0,VALID,20.1513,VALID,323,VALID,0,
2014-12-25, 00:35:04,VALID,917.57,VALID,0,VALID,96.3981,VALID,0,VALID,20.1724,VALID,323,VALID,0,
2014-12-25, 00:36:04,VALID,917.561,VALID,0.2,VALID,96.5887,VALID,0,VALID,20.1513,VALID,323,VALID,0,
2014-12-25, 00:37:04,VALID,917.576,VALID,0,VALID,96.6878,VALID,0,VALID,20.1724,VALID,323,VALID,0,
2014-12-25, 00:38:04,VALID,917.595,VALID,0.2,VALID,96.7716,VALID,0,VALID,20.1334,VALID,251,VALID,0,
2014-12-25, 00:39:04,VALID,917.599,VALID,0,VALID,96.8555,VALID,0,VALID,20.1139,VALID,256,VALID,1.93789,
2014-12-25, 00:40:04,VALID,917.574,VALID,0,VALID,96.886,VALID,0,VALID,20.0944,VALID,15,VALID,1.21992,
2014-12-25, 00:41:04,VALID,917.601,VALID,0.2,VALID,96.9622,VALID,0,VALID,20.0733,VALID,241,VALID,0.809375,
2014-12-25, 00:42:04,VALID,917.609,VALID,0,VALID,96.9927,VALID,0,VALID,20.0148,VALID,231,VALID,0.685156,
2014-12-25, 00:43:04,VALID,917.646,VALID,0.2,VALID,97.069,VALID,0,VALID,20.0358,VALID,159,VALID,0.867188,
2014-12-25, 00:44:04,VALID,917.649,VALID,0.2,VALID,97.1452,VALID,0,VALID,20.0358,VALID,143,VALID,0.173438,
2014-12-25, 00:45:04,VALID,917.633,VALID,0.2,VALID,97.1986,VALID,0,VALID,20.0163,VALID,128,VALID,1.40273,
2014-12-25, 00:46:04,VALID,917.624,VALID,0.2,VALID,97.2214,VALID,0,VALID,19.9758,VALID,311,VALID,2.59102,
2014-12-25, 00:47:04,VALID,917.621,VALID,0.4,VALID,97.2519,VALID,0,VALID,19.9968,VALID,10,VALID,0.662891,
2014-12-25, 00:48:04,VALID,917.614,VALID,0.2,VALID,97.2748,VALID,0,VALID,19.9968,VALID,48,VALID,1.32695,
2014-12-25, 00:49:04,VALID,917.6,VALID,0.4,VALID,97.3281,VALID,0,VALID,19.9758,VALID,29,VALID,0.404687,
2014-12-25, 00:50:04,VALID,917.594,VALID,0.4,VALID,97.3663,VALID,0,VALID,19.9968,VALID,25,VALID,0.7875,
2014-12-25, 00:51:04,VALID,917.574,VALID,0.8,VALID,97.412,VALID,0,VALID,19.9968,VALID,325,VALID,0.657422,
2014-12-25, 00:52:04,VALID,917.524,VALID,0.4,VALID,97.4273,VALID,0,VALID,19.9758,VALID,17,VALID,1.00195,
2014-12-25, 00:53:04,VALID,917.485,VALID,0.4,VALID,97.473,VALID,0,VALID,19.9773,VALID,5,VALID,0.635156,
2014-12-25, 00:54:04,VALID,917.472,VALID,0.2,VALID,97.4882,VALID,0,VALID,19.9368,VALID,46,VALID,0.707031,
2014-12-25, 00:55:04,VALID,917.444,VALID,0,VALID,97.4959,VALID,0,VALID,19.9383,VALID,12,VALID,0.725391,
2014-12-25, 00:56:04,VALID,917.438,VALID,0.2,VALID,97.5111,VALID,0,VALID,19.8783,VALID,305,VALID,0.346094,
2014-12-25, 00:57:04,VALID,917.383,VALID,0,VALID,97.5264,VALID,0,VALID,19.8588,VALID,20,VALID,1.58672,
2014-12-25, 00:58:04,VALID,917.316,VALID,0.2,VALID,97.5416,VALID,0,VALID,19.8798,VALID,43,VALID,1.38867,
2014-12-25, 00:59:04,VALID,917.293,VALID,0,VALID,97.5797,VALID,0,VALID,19.8588,VALID,23,VALID,1.8125,
2014-12-25, 01:00:04,VALID,917.288,VALID,0,VALID,97.5797,VALID,0,VALID,19.8408,VALID,11,VALID,1.95352,
2014-12-25, 01:01:04,VALID,917.306,VALID,0.2,VALID,97.5721,VALID,0,VALID,19.8393,VALID,354,VALID,1.74414,
2014-12-25, 01:02:04,VALID,917.307,VALID,0,VALID,97.5873,VALID,0,VALID,19.8198,VALID,347,VALID,1.98789,
2014-12-25, 01:03:04,VALID,917.302,VALID,0,VALID,97.6026,VALID,0,VALID,19.8003,VALID,352,VALID,1.34648,
2014-12-25, 01:04:04,VALID,917.305,VALID,0.2,VALID,97.6331,VALID,0,VALID,19.7808,VALID,359,VALID,1.74102,
2014-12-25, 01:05:04,VALID,917.254,VALID,0,VALID,97.6407,VALID,0,VALID,19.7613,VALID,7,VALID,1.37344,
2014-12-25, 01:06:04,VALID,917.203,VALID,0,VALID,97.6865,VALID,0,VALID,19.7613,VALID,360,VALID,1.21523,
2014-12-25, 01:07:04,VALID,917.206,VALID,0,VALID,97.6865,VALID,0,VALID,19.7808,VALID,13,VALID,1.18594,
2014-12-25, 01:08:04,VALID,917.195,VALID,0,VALID,97.7093,VALID,0,VALID,19.8213,VALID,14,VALID,0.864062,
2014-12-25, 01:09:04,VALID,917.168,VALID,0,VALID,97.7398,VALID,0,VALID,19.7808,VALID,9,VALID,1.18594,
2014-12-25, 01:10:04,VALID,917.144,VALID,0,VALID,97.7627,VALID,0,VALID,19.8018,VALID,8,VALID,1.23945,
2014-12-25, 01:11:04,VALID,917.132,VALID,0,VALID,97.7474,VALID,0,VALID,19.7613,VALID,9,VALID,1.27617,
2014-12-25, 01:12:04,VALID,917.167,VALID,0,VALID,97.7856,VALID,0,VALID,19.7613,VALID,2,VALID,1.3957,
2014-12-25, 01:13:04,VALID,917.134,VALID,0,VALID,97.7779,VALID,0,VALID,19.7613,VALID,9,VALID,1.28359,
2014-12-25, 01:14:04,VALID,917.091,VALID,0,VALID,97.8084,VALID,0,VALID,19.7613,VALID,36,VALID,1.38945,
2014-12-25, 01:15:04,VALID,917.068,VALID,0,VALID,97.816,VALID,0,VALID,19.7628,VALID,1,VALID,1.58477,
2014-12-25, 01:16:04,VALID,917.081,VALID,0,VALID,97.8237,VALID,0,VALID,19.7223,VALID,350,VALID,1.06523,
2014-12-25, 01:17:04,VALID,917.09,VALID,0,VALID,97.8237,VALID,0,VALID,19.7418,VALID,12,VALID,0.976563,
2014-12-25, 01:18:04,VALID,917.133,VALID,0,VALID,97.8465,VALID,0,VALID,19.7418,VALID,347,VALID,1.00195,
2014-12-25, 01:19:04,VALID,917.106,VALID,0,VALID,97.8618,VALID,0,VALID,19.7418,VALID,2,VALID,0.994141,
2014-12-25, 01:20:04,VALID,917.079,VALID,0,VALID,97.877,VALID,0,VALID,19.7418,VALID,11,VALID,0.869141,
2014-12-25, 01:21:04,VALID,917.093,VALID,0,VALID,97.8618,VALID,0,VALID,19.7418,VALID,336,VALID,0.576563,
2014-12-25, 01:22:04,VALID,917.059,VALID,0.2,VALID,97.8999,VALID,0,VALID,19.7223,VALID,338,VALID,0,
2014-12-25, 01:23:04,VALID,917.042,VALID,0,VALID,97.9152,VALID,0,VALID,19.7238,VALID,323,VALID,1.00039,
2014-12-25, 01:24:04,VALID,916.998,VALID,0,VALID,97.9152,VALID,0,VALID,19.7043,VALID,351,VALID,1.0125,
2014-12-25, 01:25:04,VALID,917.023,VALID,0,VALID,97.9075,VALID,0,VALID,19.7238,VALID,347,VALID,0.935547,
2014-12-25, 01:26:04,VALID,916.991,VALID,0,VALID,97.9075,VALID,0,VALID,19.6833,VALID,4,VALID,1.52813,
2014-12-25, 01:27:04,VALID,916.991,VALID,0,VALID,97.9228,VALID,0,VALID,19.7028,VALID,333,VALID,1.22656,
2014-12-25, 01:28:04,VALID,916.963,VALID,0,VALID,97.9228,VALID,0,VALID,19.7028,VALID,354,VALID,0.947266,
2014-12-25, 01:29:04,VALID,916.923,VALID,0,VALID,97.9304,VALID,0,VALID,19.7028,VALID,340,VALID,0.944922,
2014-12-25, 01:30:04,VALID,916.919,VALID,0,VALID,97.9304,VALID,0,VALID,19.7028,VALID,1,VALID,0.743359,
2014-12-25, 01:31:04,VALID,916.874,VALID,0,VALID,97.9304,VALID,0,VALID,19.7223,VALID,355,VALID,0.755859,
2014-12-25, 01:32:04,VALID,916.876,VALID,0,VALID,97.9228,VALID,0,VALID,19.7433,VALID,346,VALID,0.578516,
2014-12-25, 01:33:04,VALID,916.863,VALID,0,VALID,97.9609,VALID,0,VALID,19.7418,VALID,348,VALID,0.416406,
2014-12-25, 01:34:04,VALID,916.843,VALID,0,VALID,97.938,VALID,0,VALID,19.7418,VALID,348,VALID,0.545313,
2014-12-25, 01:35:04,VALID,916.838,VALID,0,VALID,97.9609,VALID,0,VALID,19.7418,VALID,359,VALID,0.750391,
2014-12-25, 01:36:04,VALID,916.784,VALID,0,VALID,97.9533,VALID,0,VALID,19.7418,VALID,360,VALID,0.95,
2014-12-25, 01:37:04,VALID,916.791,VALID,0,VALID,97.9609,VALID,0,VALID,19.7418,VALID,360,VALID,0.702734,
2014-12-25, 01:38:04,VALID,916.78,VALID,0,VALID,97.9533,VALID,0.107441,VALID,19.7613,VALID,360,VALID,0.565234,
2014-12-25, 01:39:04,VALID,916.76,VALID,0,VALID,97.9609,VALID,0,VALID,19.7823,VALID,360,VALID,0.297656,
2014-12-25, 01:40:04,VALID,916.741,VALID,0,VALID,97.9533,VALID,0,VALID,19.8003,VALID,345,VALID,0.654688,
2014-12-25, 01:41:04,VALID,916.719,VALID,0,VALID,97.9761,VALID,0,VALID,19.8018,VALID,5,VALID,0.734375,
2014-12-25, 01:42:04,VALID,916.683,VALID,0,VALID,97.9685,VALID,0,VALID,19.7823,VALID,357,VALID,0,
2014-12-25, 01:43:04,VALID,916.66,VALID,0,VALID,97.9914,VALID,0,VALID,19.7418,VALID,349,VALID,0,
2014-12-25, 01:44:04,VALID,916.652,VALID,0,VALID,97.9838,VALID,0,VALID,19.7433,VALID,345,VALID,0,
2014-12-25, 01:45:04,VALID,916.628,VALID,0.2,VALID,97.9685,VALID,0,VALID,19.7433,VALID,315,VALID,0,
2014-12-25, 01:46:04,VALID,916.601,VALID,0,VALID,97.9609,VALID,0,VALID,19.7613,VALID,332,VALID,0,
2014-12-25, 01:47:04,VALID,916.576,VALID,0,VALID,97.999,VALID,0,VALID,19.7823,VALID,1,VALID,0,
2014-12-25, 01:48:04,VALID,916.569,VALID,0,VALID,97.9609,VALID,0,VALID,19.8408,VALID,1,VALID,0,
2014-12-25, 01:49:04,VALID,916.545,VALID,0,VALID,97.9533,VALID,0,VALID,19.8408,VALID,360,VALID,0,
2014-12-25, 01:50:04,VALID,916.549,VALID,0,VALID,97.9914,VALID,0,VALID,19.7823,VALID,19,VALID,0,
2014-12-25, 01:51:04,VALID,916.554,VALID,0,VALID,97.999,VALID,0,VALID,19.8018,VALID,339,VALID,0,
2014-12-25, 01:52:04,VALID,916.522,VALID,0,VALID,97.9914,VALID,0,VALID,19.7823,VALID,329,VALID,0,
2014-12-25, 01:53:04,VALID,916.511,VALID,0,VALID,98.0066,VALID,0,VALID,19.7433,VALID,338,VALID,0,
2014-12-25, 01:54:04,VALID,916.498,VALID,0,VALID,98.0066,VALID,0,VALID,19.7418,VALID,335,VALID,0.242188,
2014-12-25, 01:55:04,VALID,916.521,VALID,0,VALID,98.0448,VALID,0,VALID,19.7628,VALID,357,VALID,1.36289,
2014-12-25, 01:56:04,VALID,916.469,VALID,0,VALID,98.0066,VALID,0.107441,VALID,19.7628,VALID,15,VALID,1.09023,
2014-12-25, 01:57:04,VALID,916.481,VALID,0,VALID,98.0066,VALID,0,VALID,19.7418,VALID,358,VALID,1.06172,
2014-12-25, 01:58:04,VALID,916.416,VALID,0,VALID,98.0219,VALID,0,VALID,19.7433,VALID,360,VALID,1.11719,
2014-12-25, 01:59:04,VALID,916.414,VALID,0,VALID,97.999,VALID,0,VALID,19.7628,VALID,8,VALID,0.940625,
2014-12-25, 02:00:04,VALID,916.395,VALID,0,VALID,97.9914,VALID,0,VALID,19.7823,VALID,10,VALID,0.827734,
2014-12-25, 02:01:04,VALID,916.393,VALID,0,VALID,98.0143,VALID,0,VALID,19.7808,VALID,10,VALID,0.907812,
2014-12-25, 02:02:05,VALID,916.399,VALID,0,VALID,98.0066,VALID,0,VALID,19.8213,VALID,356,VALID,0.819531,
2014-12-25, 02:03:05,VALID,916.415,VALID,0,VALID,98.0295,VALID,0,VALID,19.7613,VALID,6,VALID,1.77383,
2014-12-25, 02:04:05,VALID,916.367,VALID,0,VALID,98.0295,VALID,0,VALID,19.7823,VALID,18,VALID,1.27148,
2014-12-25, 02:05:05,VALID,916.397,VALID,0,VALID,98.0143,VALID,0,VALID,19.7628,VALID,7,VALID,1.07344,
2014-12-25, 02:06:05,VALID,916.383,VALID,0,VALID,98.0143,VALID,0,VALID,19.7823,VALID,14,VALID,1.43438,
2014-12-25, 02:07:05,VALID,916.345,VALID,0,VALID,98.0295,VALID,0,VALID,19.7823,VALID,349,VALID,1.4332,
2014-12-25, 02:08:05,VALID,916.33,VALID,0,VALID,98.0371,VALID,0,VALID,19.7613,VALID,346,VALID,0.469922,
2014-12-25, 02:09:05,VALID,916.343,VALID,0,VALID,98.0295,VALID,0,VALID,19.8018,VALID,359,VALID,0.832812,
2014-12-25, 02:10:05,VALID,916.334,VALID,0,VALID,98.0295,VALID,0,VALID,19.8003,VALID,15,VALID,0.180469,
2014-12-25, 02:11:05,VALID,916.323,VALID,0,VALID,98.0371,VALID,0,VALID,19.8018,VALID,28,VALID,1.27383,
2014-12-25, 02:12:05,VALID,916.268,VALID,0,VALID,98.0143,VALID,0,VALID,19.8213,VALID,19,VALID,0.864844,
2014-12-25, 02:13:05,VALID,916.293,VALID,0,VALID,98.0295,VALID,0,VALID,19.8213,VALID,9,VALID,1.11641,
2014-12-25, 02:14:05,VALID,916.267,VALID,0,VALID,98.0448,VALID,0,VALID,19.8018,VALID,339,VALID,1.14961,
2014-12-25, 02:15:05,VALID,916.233,VALID,0,VALID,98.0448,VALID,0,VALID,19.7823,VALID,336,VALID,0.816406,
2014-12-25, 02:16:05,VALID,916.21,VALID,0,VALID,98.0295,VALID,0,VALID,19.7808,VALID,344,VALID,0.766406,
2014-12-25, 02:17:05,VALID,916.189,VALID,0.2,VALID,98.06,VALID,0,VALID,19.7628,VALID,357,VALID,0.725781,
2014-12-25, 02:18:05,VALID,916.165,VALID,0,VALID,98.0371,VALID,0,VALID,19.7628,VALID,29,VALID,1.11484,
2014-12-25, 02:19:05,VALID,916.159,VALID,0,VALID,98.0219,VALID,0,VALID,19.7808,VALID,39,VALID,0.720703,
2014-12-25, 02:20:05,VALID,916.11,VALID,0,VALID,98.0448,VALID,0,VALID,19.7823,VALID,38,VALID,0.25625,
2014-12-25, 02:21:05,VALID,916.117,VALID,0,VALID,98.0448,VALID,0,VALID,19.8198,VALID,37,VALID,0.501562,
2014-12-25, 02:22:05,VALID,916.077,VALID,0,VALID,98.0295,VALID,0,VALID,19.8018,VALID,14,VALID,0.920703,
2014-12-25, 02:23:05,VALID,916.052,VALID,0,VALID,98.0524,VALID,0,VALID,19.8213,VALID,15,VALID,0.503516,
2014-12-25, 02:24:05,VALID,916.046,VALID,0,VALID,98.0448,VALID,0,VALID,19.8003,VALID,23,VALID,0.800391,
2014-12-25, 02:25:05,VALID,916.048,VALID,0,VALID,98.0448,VALID,0,VALID,19.7613,VALID,23,VALID,0.781641,
2014-12-25, 02:26:05,VALID,916.013,VALID,0,VALID,98.0676,VALID,0,VALID,19.7418,VALID,38,VALID,0.903516,
2014-12-25, 02:27:05,VALID,916.013,VALID,0,VALID,98.06,VALID,0,VALID,19.7433,VALID,43,VALID,1.21289,
2014-12-25, 02:28:05,VALID,916.013,VALID,0,VALID,98.06,VALID,0,VALID,19.7223,VALID,27,VALID,1.0375,
2014-12-25, 02:29:05,VALID,916.019,VALID,0,VALID,98.0676,VALID,0,VALID,19.7433,VALID,17,VALID,0.765625,
2014-12-25, 02:30:05,VALID,916.02,VALID,0,VALID,98.0676,VALID,0,VALID,19.7223,VALID,16,VALID,0.558594,
2014-12-25, 02:31:05,VALID,916.042,VALID,0,VALID,98.0295,VALID,0,VALID,19.7628,VALID,16,VALID,0.619531,
2014-12-25, 02:32:05,VALID,916.043,VALID,0,VALID,98.0371,VALID,0,VALID,19.7823,VALID,16,VALID,0.500781,
2014-12-25, 02:33:05,VALID,916.034,VALID,0,VALID,98.0295,VALID,0,VALID,19.8198,VALID,16,VALID,0.34375,
2014-12-25, 02:34:05,VALID,916.016,VALID,0,VALID,98.0295,VALID,0,VALID,19.8018,VALID,24,VALID,0.979297,
2014-12-25, 02:35:05,VALID,916.039,VALID,0,VALID,98.0676,VALID,0,VALID,19.7418,VALID,27,VALID,0.786328,
2014-12-25, 02:36:05,VALID,916.016,VALID,0,VALID,98.0448,VALID,0,VALID,19.7823,VALID,27,VALID,0.549219,
2014-12-25, 02:37:05,VALID,916.041,VALID,0,VALID,98.0676,VALID,0,VALID,19.7613,VALID,352,VALID,1.27461,
2014-12-25, 02:38:05,VALID,916.018,VALID,0,VALID,98.06,VALID,0,VALID,19.7223,VALID,354,VALID,0.929297,
2014-12-25, 02:39:05,VALID,916.015,VALID,0,VALID,98.0524,VALID,0,VALID,19.7238,VALID,5,VALID,0.787891,
2014-12-25, 02:40:05,VALID,915.979,VALID,0,VALID,98.0829,VALID,0,VALID,19.7238,VALID,46,VALID,0.939062,
2014-12-25, 02:41:05,VALID,915.989,VALID,0,VALID,98.0905,VALID,0,VALID,19.7028,VALID,55,VALID,1.09414,
2014-12-25, 02:42:05,VALID,915.964,VALID,0,VALID,98.0829,VALID,0,VALID,19.7043,VALID,55,VALID,1.14688,
2014-12-25, 02:43:05,VALID,915.957,VALID,0,VALID,98.0752,VALID,0,VALID,19.6833,VALID,55,VALID,1.19922,
2014-12-25, 02:44:05,VALID,915.977,VALID,0,VALID,98.1057,VALID,0,VALID,19.6848,VALID,55,VALID,0.850781,
2014-12-25, 02:45:05,VALID,915.974,VALID,0,VALID,98.0752,VALID,0,VALID,19.6833,VALID,52,VALID,0.656641,
2014-12-25, 02:46:05,VALID,915.986,VALID,0,VALID,98.0829,VALID,0,VALID,19.6653,VALID,27,VALID,0.442578,
2014-12-25, 02:47:05,VALID,915.999,VALID,0,VALID,98.0752,VALID,0,VALID,19.6638,VALID,31,VALID,0.641016,
2014-12-25, 02:48:05,VALID,915.969,VALID,0,VALID,98.0676,VALID,0,VALID,19.7028,VALID,30,VALID,0.773047,
2014-12-25, 02:49:05,VALID,915.989,VALID,0,VALID,98.0752,VALID,0,VALID,19.7043,VALID,32,VALID,0.948828,
2014-12-25, 02:50:05,VALID,915.955,VALID,0,VALID,98.0676,VALID,0,VALID,19.7043,VALID,36,VALID,0.898047,
2014-12-25, 02:51:05,VALID,915.964,VALID,0,VALID,98.0829,VALID,0,VALID,19.7043,VALID,42,VALID,1.12617,
2014-12-25, 02:52:05,VALID,915.977,VALID,0,VALID,98.0981,VALID,0,VALID,19.7043,VALID,55,VALID,0.732031,
2014-12-25, 02:53:05,VALID,915.948,VALID,0,VALID,98.0829,VALID,0,VALID,19.7043,VALID,55,VALID,0.385156,
2014-12-25, 02:54:05,VALID,915.943,VALID,0,VALID,98.0905,VALID,0,VALID,19.6848,VALID,55,VALID,0.515234,
2014-12-25, 02:55:05,VALID,915.964,VALID,0,VALID,98.0829,VALID,0,VALID,19.6833,VALID,55,VALID,0.793359,
2014-12-25, 02:56:05,VALID,915.938,VALID,0,VALID,98.0981,VALID,0,VALID,19.7043,VALID,46,VALID,0.612109,
2014-12-25, 02:57:05,VALID,915.964,VALID,0,VALID,98.0676,VALID,0,VALID,19.7223,VALID,46,VALID,0.489453,
2014-12-25, 02:58:05,VALID,915.909,VALID,0,VALID,98.0448,VALID,0,VALID,19.7823,VALID,46,VALID,0.412891,
2014-12-25, 02:59:05,VALID,915.912,VALID,0,VALID,98.0829,VALID,0,VALID,19.7433,VALID,46,VALID,0.758984,
2014-12-25, 03:00:05,VALID,915.91,VALID,0,VALID,98.0981,VALID,0,VALID,19.7028,VALID,46,VALID,0.514453,
2014-12-25, 03:01:05,VALID,915.885,VALID,0,VALID,98.0905,VALID,0,VALID,19.7238,VALID,52,VALID,0.70625,
2014-12-25, 03:02:05,VALID,915.872,VALID,0,VALID,98.0981,VALID,0,VALID,19.7043,VALID,57,VALID,1.01289,
2014-12-25, 03:03:05,VALID,915.83,VALID,0,VALID,98.0981,VALID,0,VALID,19.7043,VALID,57,VALID,0.732813,
2014-12-25, 03:04:05,VALID,915.819,VALID,0,VALID,98.1057,VALID,0,VALID,19.7043,VALID,57,VALID,0.936328,
2014-12-25, 03:05:05,VALID,915.806,VALID,0,VALID,98.0905,VALID,0,VALID,19.6833,VALID,51,VALID,0.994531,
2014-12-25, 03:06:05,VALID,915.781,VALID,0,VALID,98.0905,VALID,0,VALID,19.6848,VALID,30,VALID,1.00273,
2014-12-25, 03:07:05,VALID,915.757,VALID,0,VALID,98.1057,VALID,0,VALID,19.6848,VALID,32,VALID,0.988281,
2014-12-25, 03:08:05,VALID,915.765,VALID,0,VALID,98.0981,VALID,0,VALID,19.6848,VALID,43,VALID,1.03047,
2014-12-25, 03:09:05,VALID,915.722,VALID,0,VALID,98.1134,VALID,0,VALID,19.6848,VALID,58,VALID,1.36992,
2014-12-25, 03:10:05,VALID,915.705,VALID,0,VALID,98.0905,VALID,0,VALID,19.6443,VALID,56,VALID,1.08477,
2014-12-25, 03:11:05,VALID,915.727,VALID,0,VALID,98.0981,VALID,0,VALID,19.6458,VALID,57,VALID,1.1418,
2014-12-25, 03:12:05,VALID,915.782,VALID,0,VALID,98.0905,VALID,0,VALID,19.6653,VALID,57,VALID,0.872656,
2014-12-25, 03:13:05,VALID,915.81,VALID,0,VALID,98.0829,VALID,0,VALID,19.6458,VALID,62,VALID,0.394141,
2014-12-25, 03:14:05,VALID,915.851,VALID,0,VALID,98.0829,VALID,0,VALID,19.6458,VALID,62,VALID,0.356641,
2014-12-25, 03:15:05,VALID,915.863,VALID,0,VALID,98.0752,VALID,0,VALID,19.6443,VALID,62,VALID,0,
2014-12-25, 03:16:05,VALID,915.863,VALID,0,VALID,98.0829,VALID,0,VALID,19.6848,VALID,62,VALID,0,
2014-12-25, 03:17:05,VALID,915.847,VALID,0,VALID,98.0676,VALID,0,VALID,19.7043,VALID,62,VALID,0,
2014-12-25, 03:18:05,VALID,915.829,VALID,0,VALID,98.0524,VALID,0,VALID,19.7238,VALID,62,VALID,0.165234,
2014-12-25, 03:19:05,VALID,915.818,VALID,0.2,VALID,98.06,VALID,0,VALID,19.7238,VALID,62,VALID,0.341016,
2014-12-25, 03:20:05,VALID,915.808,VALID,0,VALID,98.0829,VALID,0,VALID,19.7223,VALID,62,VALID,0.171875,
2014-12-25, 03:21:05,VALID,915.811,VALID,0,VALID,98.0752,VALID,0,VALID,19.7238,VALID,62,VALID,0,
2014-12-25, 03:22:05,VALID,915.818,VALID,0.2,VALID,98.06,VALID,0,VALID,19.7238,VALID,62,VALID,0,
2014-12-25, 03:23:05,VALID,915.823,VALID,0,VALID,98.06,VALID,0,VALID,19.7418,VALID,62,VALID,0,
2014-12-25, 03:24:05,VALID,915.829,VALID,0,VALID,98.0676,VALID,0,VALID,19.7433,VALID,62,VALID,0.0679687,
2014-12-25, 03:25:05,VALID,915.826,VALID,0,VALID,98.0752,VALID,0,VALID,19.7238,VALID,62,VALID,0.395703,
2014-12-25, 03:26:05,VALID,915.799,VALID,0,VALID,98.0829,VALID,0,VALID,19.7238,VALID,62,VALID,0.262109,
2014-12-25, 03:27:05,VALID,915.779,VALID,0,VALID,98.0676,VALID,0,VALID,19.7433,VALID,62,VALID,0.354297,
2014-12-25, 03:28:05,VALID,915.793,VALID,0,VALID,98.0752,VALID,0,VALID,19.7628,VALID,62,VALID,0,
2014-12-25, 03:29:05,VALID,915.77,VALID,0,VALID,98.0829,VALID,0,VALID,19.7433,VALID,62,VALID,0,
2014-12-25, 03:30:05,VALID,915.767,VALID,0,VALID,98.0905,VALID,0,VALID,19.7238,VALID,62,VALID,0,
2014-12-25, 03:31:05,VALID,915.79,VALID,0,VALID,98.0752,VALID,0,VALID,19.7433,VALID,62,VALID,0,
2014-12-25, 03:32:05,VALID,915.786,VALID,0.2,VALID,98.06,VALID,0,VALID,19.7418,VALID,62,VALID,0,
2014-12-25, 03:33:05,VALID,915.782,VALID,0,VALID,98.0676,VALID,0,VALID,19.7808,VALID,62,VALID,0,
2014-12-25, 03:34:05,VALID,915.805,VALID,0,VALID,98.0752,VALID,0,VALID,19.8018,VALID,62,VALID,0,
2014-12-25, 03:35:05,VALID,915.819,VALID,0,VALID,98.0676,VALID,0,VALID,19.7433,VALID,62,VALID,0,
2014-12-25, 03:36:05,VALID,915.836,VALID,0,VALID,98.06,VALID,0,VALID,19.7433,VALID,355,VALID,0,
2014-12-25, 03:37:05,VALID,915.774,VALID,0,VALID,98.0524,VALID,0,VALID,19.7433,VALID,355,VALID,0,
2014-12-25, 03:38:05,VALID,915.803,VALID,0,VALID,98.0905,VALID,0,VALID,19.7433,VALID,355,VALID,0,
2014-12-25, 03:39:05,VALID,915.8,VALID,0,VALID,98.0752,VALID,0,VALID,19.7238,VALID,355,VALID,0,
2014-12-25, 03:40:05,VALID,915.783,VALID,0,VALID,98.0981,VALID,0,VALID,19.7043,VALID,355,VALID,0,
2014-12-25, 03:41:05,VALID,915.794,VALID,0,VALID,98.0676,VALID,0,VALID,19.7028,VALID,355,VALID,0,
2014-12-25, 03:42:05,VALID,915.776,VALID,0,VALID,98.0752,VALID,0,VALID,19.7028,VALID,355,VALID,0,
2014-12-25, 03:43:05,VALID,915.751,VALID,0,VALID,98.0524,VALID,0,VALID,19.7433,VALID,355,VALID,0,
2014-12-25, 03:44:05,VALID,915.72,VALID,0,VALID,98.0676,VALID,0,VALID,19.7238,VALID,355,VALID,0,
2014-12-25, 03:45:05,VALID,915.716,VALID,0,VALID,98.0676,VALID,0,VALID,19.7028,VALID,356,VALID,0,
2014-12-25, 03:46:05,VALID,915.713,VALID,0,VALID,98.0752,VALID,0,VALID,19.7433,VALID,349,VALID,0.375391,
2014-12-25, 03:47:05,VALID,915.691,VALID,0,VALID,98.0752,VALID,0,VALID,19.7238,VALID,346,VALID,0.927734,
2014-12-25, 03:48:05,VALID,915.677,VALID,0.2,VALID,98.0905,VALID,0,VALID,19.6833,VALID,354,VALID,0.830469,
2014-12-25, 03:49:05,VALID,915.643,VALID,0,VALID,98.0829,VALID,0,VALID,19.7238,VALID,360,VALID,0.912891,
2014-12-25, 03:50:05,VALID,915.616,VALID,0,VALID,98.0829,VALID,0,VALID,19.7028,VALID,2,VALID,0.862109,